Temperature
-2 -1 -1 -1 -1 -2 -2 -2 -1 -1 -2 -1 -2 -2 -2 -2 -2 -2 -3 -3 -3 -3 -3 -3 -3 -3 -2 -2 -2 -2 -2 -2 -2 -2 -2 -2 -1 -1 -1 -1 -1 -1 -1 -1
-2 -2 -2 -2 -2 -2 -2 -2 -2 -2 -2 -2 -2 -2 -3 -3 -3 -3 -3 -3 -3 -3 -3 -3 -3 -3 -3 -3 -3 -3 -3 -3 -3 -3 -2 -2 -2 -2 -2 -2 -2 -2 -2 -2
-2 -3 -2 -2 -2 -2 -3 -3 -3 -2 -2 -3 -4 -4 -3 -3 -3 -3 -4 -4 -4 -4 -4 -4 -4 -4 -4 -4 -4 -4 -4 -4 -3 -3 -3 -3 -3 -3 -3 -3 -2 -2 -2 -2
-3 -3 -2 -1 -3 -4 -4 -4 -5 -4 -4 -4 -4 -3 -3 -3 -4 -4 -4 -4 -4 -4 -4 -4 -4 -4 -4 -4 -4 -4 -4 -4 -4 -4 -4 -4 -4 -4 -4 -3 -3 -3 -3 -3
-4 -4 -3 -2 -3 -5 -4 -4 -5 -5 -5 -5 -4 -4 -4 -3 -4 -4 -4 -5 -5 -5 -5 -5 -5 -5 -5 -5 -5 -5 -5 -5 -5 -5 -4 -4 -4 -4 -4 -4 -4 -4 -4 -4
-4 -3 -3 -2 -3 -4 -4 -4 -4 -5 -6 -5 -5 -5 -4 -4 -4 -5 -5 -5 -5 -5 -5 -5 -5 -5 -5 -5 -5 -5 -5 -5 -5 -5 -5 -5 -5 -5 -5 -5 -5 -5 -5 -5
-5 -4 -4 -4 -5 -4 -3 -3 -4 -4 -5 -5 -6 -5 -4 -5 -5 -5 -6 -6 -6 -6 -6 -6 -6 -6 -6 -6 -5 -6 -6 -6 -6 -6 -6 -6 -5 -5 -5 -5 -5 -5 -5 -5
-5 -5 -3 -5 -6 -5 -4 -3 -4 -4 -4 -5 -5 -5 -5 -5 -6 -6 -6 -6 -6 -6 -6 -6 -6 -6 -6 -6 -6 -6 -6 -6 -6 -6 -6 -6 -6 -6 -6 -6 -6 -6 -6 -5
-5 -4 -4 -5 -4 -4 -4 -4 -4 -4 -5 -5 -5 -5 -6 -6 -6 -6 -7 -7 -7 -7 -7 -7 -7 -7 -7 -7 -7 -7 -7 -7 -7 -7 -7 -7 -7 -7 -7 -7 -7 -7 -6 -6
-6 -6 -6 -5 -4 -4 -4 -4 -4 -5 -5 -5 -6 -6 -6 -6 -7 -7 -7 -7 -7 -8 -8 -7 -7 -7 -7 -8 -8 -8 -8 -8 -8 -7 -7 -7 -7 -7 -7 -7 -7 -7 -7 -7
-7 -7 -7 -6 -5 -5 -5 -5 -5 -6 -6 -6 -6 -7 -7 -7 -7 -7 -8 -8 -8 -8 -8 -8 -8 -8 -8 -8 -8 -8 -8 -8 -8 -8 -8 -8 -8 -8 -8 -7 -8 -8 -8 -8
-6 -6 -7 -6 -5 -5 -6 -6 -6 -6 -6 -7 -7 -7 -7 -7 -8 -8 -8 -8 -8 -8 -8 -8 -8 -8 -9 -9 -9 -9 -9 -9 -9 -9 -8 -8 -8 -8 -8 -8 -8 -8 -8 -8
-6 -6 -6 -6 -6 -6 -6 -6 -7 -7 -7 -7 -7 -8 -8 -8 -8 -8 -9 -9 -9 -9 -9 -9 -9 -9 -9 -9 -9 -9 -9 -9 -9 -9 -9 -9 -9 -9 -9 -8 -8 -8 -8 -8
-7 -7 -7 -7 -7 -7 -7 -7 -7 -7 -8 -8 -8 -8 -8 -9 -9 -9 -9 -9 -9 -9 -9 -9 -9 -9 -9 -9 -9 -9 -10 -10 -10 -10 -9 -10 -10 -10 -10 -10 -9 -9 -9 -9
-7 -7 -8 -8 -8 -8 -8 -8 -8 -8 -8 -8 -9 -9 -9 -9 -9 -9 -9 -9 -9 -10 -10 -9 -9 -9 -10 -10 -10 -10 -10 -10 -10 -10 -10 -10 -10 -10 -10 -10 -10 -10 -9 -9
-8 -8 -8 -8 -8 -8 -8 -9 -9 -9 -9 -9 -9 -9 -9 -9 -10 -10 -10 -10 -10 -10 -10 -10 -10 -10 -10 -10 -10 -10 -10 -10 -11 -11 -11 -11 -11 -11 -11 -10 -10 -10 -10 -10
-9 -9 -9 -9 -9 -9 -9 -9 -9 -9 -9 -9 -10 -10 -10 -10 -10 -10 -10 -10 -10 -11 -11 -11 -11 -11 -11 -11 -11 -11 -11 -11 -11 -11 -11 -11 -11 -11 -11 -11 -11 -11 -11 -11
-8 -9 -9 -9 -9 -9 -9 -9 -10 -10 -10 -10 -10 -10 -10 -10 -11 -11 -11 -11 -11 -11 -11 -11 -11 -11 -11 -11 -11 -11 -11 -11 -11 -11 -11 -12 -12 -12 -11 -11 -11 -11 -11 -11
-9 -9 -9 -9 -9 -9 -10 -10 -10 -10 -10 -10 -10 -11 -11 -11 -11 -11 -11 -11 -11 -11 -11 -11 -11 -11 -11 -12 -12 -12 -12 -12 -12 -12 -12 -12 -12 -12 -12 -12 -12 -12 -12 -12
-9 -9 -9 -9 -9 -10 -10 -10 -10 -10 -10 -11 -11 -11 -11 -11 -12 -12 -12 -12 -12 -12 -12 -12 -12 -12 -12 -12 -12 -12 -12 -12 -12 -12 -12 -12 -12 -12 -12 -12 -12 -12 -12 -12
-9 -9 -9 -10 -10 -10 -10 -10 -10 -10 -11 -11 -11 -11 -12 -12 -12 -12 -12 -12 -12 -12 -12 -12 -12 -12 -12 -12 -12 -12 -12 -12 -13 -13 -13 -13 -13 -13 -13 -13 -13 -13 -13 -12
-10 -10 -10 -10 -10 -10 -11 -11 -11 -11 -11 -11 -12 -12 -12 -12 -12 -12 -12 -12 -12 -13 -13 -12 -13 -13 -13 -13 -13 -13 -13 -13 -13 -13 -13 -13 -13 -13 -13 -13 -13 -13 -13 -13
-10 -10 -10 -11 -11 -11 -11 -11 -11 -11 -11 -12 -12 -12 -12 -12 -13 -13 -13 -13 -13 -13 -13 -13 -13 -13 -13 -13 -13 -13 -13 -13 -13 -13 -13 -13 -14 -14 -14 -13 -13 -14 -13 -13
-10 -11 -11 -11 -11 -11 -11 -11 -12 -12 -12 -12 -12 -13 -13 -13 -13 -13 -13 -13 -13 -13 -13 -13 -13 -13 -13 -13 -13 -13 -13 -13 -13 -13 -14 -14 -14 -14 -14 -14 -14 -14 -14 -14
-11 -11 -11 -11 -12 -12 -12 -12 -12 -12 -12 -13 -13 -13 -13 -13 -13 -13 -13 -13 -13 -13 -13 -13 -13 -13 -13 -13 -13 -13 -13 -14 -14 -14 -14 -14 -14 -14 -14 -14 -14 -14 -14 -14
-11 -11 -12 -12 -12 -12 -12 -12 -13 -13 -13 -13 -13 -13 -13 -13 -13 -13 -14 -14 -14 -14 -14 -14 -13 -13 -13 -14 -14 -14 -14 -14 -14 -14 -14 -14 -14 -14 -14 -14 -14 -14 -14 -14
-12 -12 -12 -12 -12 -13 -13 -13 -13 -13 -13 -13 -13 -13 -13 -14 -14 -14 -14 -14 -14 -14 -14 -14 -14 -14 -14 -14 -14 -14 -14 -14 -14 -14 -14 -14 -14 -14 -14 -15 -14 -14 -14 -14
Wind_Speed
9 9 7 9 10 8 9 9 10 11 11 13 10 7 6 5 4 3 4 4 4 4 4 4 4 3 3 3 3 3 3 3 4 3 3 3 3 4 4 5 5 6 6 5
7 7 7 10 12 11 11 10 12 13 14 11 8 4 4 5 4 4 5 6 5 5 5 5 5 4 4 4 4 3 3 4 3 3 3 3 3 3 4 5 5 5 6 6
6 6 6 8 9 9 7 6 7 10 9 5 4 5 5 5 5 5 6 6 5 5 5 6 6 5 5 4 3 3 3 3 3 3 3 4 4 3 3 4 5 5 6 6
3 4 7 6 1 4 5 6 6 6 6 5 6 6 4 4 4 6 6 5 5 5 6 5 5 4 3 3 2 3 3 4 4 4 4 3 3 4 4 4 4 5 6 6
2 4 9 7 3 2 4 6 4 6 7 5 4 4 4 3 2 4 5 5 5 5 5 4 4 4 3 2 2 2 3 4 4 4 4 3 4 4 3 3 4 4 5 5
3 4 6 6 2 1 2 5 4 4 5 4 2 3 5 3 3 4 5 4 4 4 3 4 5 3 2 3 3 4 4 4 4 3 4 4 4 4 3 3 4 4 4 4
6 7 8 5 1 2 2 6 3 3 4 3 4 6 5 4 4 4 4 4 4 3 3 4 4 3 3 3 4 4 4 3 3 3 4 4 3 3 3 3 3 3 4 4
5 6 9 3 4 5 6 2 1 2 3 4 5 4 4 4 4 4 4 4 4 3 4 4 3 3 3 4 4 3 2 2 3 3 3 3 2 3 3 3 3 4 4 4
8 8 3 4 5 4 2 2 2 3 4 4 4 5 4 4 4 4 4 4 4 3 4 4 4 3 3 5 4 3 2 2 3 3 3 3 2 3 2 3 3 3 3 4
6 8 6 4 4 3 3 3 4 3 3 3 5 5 5 4 4 4 4 3 3 3 4 5 5 4 4 4 3 2 3 3 3 2 3 2 2 3 3 3 3 4 4 4
7 7 5 5 5 6 4 3 3 2 3 3 4 5 4 4 4 4 4 3 3 3 4 5 5 5 4 4 3 2 3 3 3 3 3 2 3 3 3 4 5 5 4 4
8 5 5 5 4 3 3 4 3 3 3 3 3 4 4 4 4 3 3 3 3 4 4 5 5 5 5 4 2 2 3 3 3 2 2 2 2 3 4 4 6 7 7 6
7 4 4 5 4 3 3 4 3 3 4 4 3 3 3 4 3 3 3 3 4 4 5 5 4 5 5 4 3 2 3 3 3 3 2 2 2 2 3 4 5 5 6 6
5 3 4 5 5 4 3 3 3 2 3 3 3 2 2 3 3 3 4 4 4 4 4 4 4 5 5 4 3 3 3 3 3 2 2 2 2 2 2 2 3 3 4 5
5 4 5 4 4 3 2 1 2 3 3 3 2 2 3 3 4 5 4 3 3 3 4 3 4 5 5 4 3 3 3 2 2 2 2 2 2 2 2 2 2 3 2 3
4 4 4 3 4 3 2 2 2 4 4 4 3 4 4 4 4 4 3 2 2 4 4 4 5 5 4 4 3 2 2 4 3 2 2 2 2 2 2 2 2 2 2 3
3 4 5 5 5 5 4 4 4 5 4 4 4 4 3 3 3 3 3 3 3 4 4 4 5 5 4 3 3 2 2 3 4 3 2 2 1 1 1 1 2 2 2 3
6 6 5 5 5 5 5 4 4 4 4 4 3 2 2 2 3 4 4 3 3 4 4 4 4 3 3 3 2 2 2 2 2 2 2 2 2 1 1 1 2 2 2 3
4 4 4 4 4 4 4 4 4 4 3 2 1 2 3 3 3 3 2 2 3 4 5 4 6 3 3 3 3 1 1 1 2 2 2 2 3 2 2 2 2 2 2 2
2 2 2 2 2 2 3 3 3 2 2 1 1 1 2 3 2 2 2 2 3 3 4 4 4 3 3 3 3 1 1 1 1 1 2 1 1 2 2 2 2 2 2 2
3 2 2 2 2 2 2 2 2 2 2 1 1 2 2 3 2 1 1 3 4 4 4 5 3 2 2 2 2 1 1 1 1 1 1 1 1 1 1 1 2 2 2 2
2 2 2 2 2 2 2 1 1 1 1 1 1 1 1 2 2 2 2 3 4 5 3 3 2 3 3 2 1 0 0 1 1 1 1 1 1 1 1 1 1 2 2 2
2 2 2 2 2 2 2 1 1 1 1 2 2 2 2 2 2 2 3 3 3 5 3 2 4 5 4 2 1 1 1 1 1 1 1 2 1 1 1 2 2 2 2 2
2 2 2 1 1 0 1 2 1 1 1 2 2 2 2 2 2 2 3 5 5 5 3 4 6 5 4 1 1 1 1 1 2 2 2 2 1 1 1 2 2 2 2 2
2 1 1 1 1 1 2 1 1 1 1 1 2 2 1 1 2 3 3 3 4 4 3 4 5 5 3 1 1 1 1 2 2 2 2 1 1 2 2 2 2 2 2 3
2 2 2 2 2 1 1 1 1 1 1 2 2 2 2 2 2 2 2 3 3 4 3 3 3 3 2 2 2 2 2 2 3 2 2 2 2 2 2 2 3 3 3 3
1 1 1 1 1 1 1 1 1 1 1 2 2 2 2 2 2 2 2 2 3 3 2 2 2 2 2 2 2 2 2 2 2 2 2 2 2 2 3 3 3 3 4 4
Wind_Direction
259 266 260 258 258 240 225 224 232 252 255 270 278 275 277 283 289 303 305 301 287 283 283 284 286 282 277 280 279 274 263 257 255 252 243 234 233 229 221 218 220 217 219 224
282 275 266 269 262 246 242 241 242 259 270 270 281 287 285 289 289 287 290 293 295 294 292 288 286 285 279 276 280 277 262 262 264 254 243 238 237 235 231 224 223 221 221 221
276 303 318 277 252 225 223 221 215 238 252 277 290 288 282 282 279 277 281 287 290 290 285 285 284 283 275 271 280 275 266 268 264 253 246 245 246 234 236 237 228 225 227 223
278 340 259 249 222 201 214 246 232 244 268 273 268 279 282 281 279 285 289 290 291 292 295 298 297 293 286 276 266 262 265 267 267 258 251 252 247 241 239 240 236 233 229 226
220 259 274 289 265 195 215 273 236 241 269 287 305 321 301 297 285 279 287 287 283 286 291 303 306 303 303 291 273 268 268 266 266 259 254 249 247 248 246 238 240 241 239 224
197 234 253 262 270 228 135 282 254 219 253 272 331 310 289 311 321 310 308 304 303 311 320 320 315 316 313 299 288 276 273 272 270 259 249 244 246 250 248 240 239 241 251 239
218 237 262 265 250 116 180 263 282 222 242 234 228 244 276 303 309 307 312 316 321 326 325 318 321 326 310 301 282 278 282 281 277 269 259 251 248 248 241 245 241 239 248 254
191 221 254 218 140 189 230 285 272 259 259 249 254 275 289 294 300 310 319 324 328 329 324 325 331 328 317 305 300 301 292 288 286 282 276 268 248 254 246 233 238 241 245 258
202 221 256 182 206 238 254 257 257 253 271 264 265 276 286 291 293 298 304 312 324 325 322 325 328 328 310 310 322 325 320 301 294 292 287 277 260 255 252 237 236 244 242 250
246 259 259 250 260 286 280 266 267 260 265 256 264 275 283 286 291 294 299 307 322 328 325 321 325 326 316 320 325 324 315 310 305 296 291 281 269 257 245 235 236 240 243 247
251 271 292 268 253 261 276 280 282 286 274 264 261 276 282 288 286 284 296 306 313 309 305 309 319 319 321 325 329 323 312 306 305 297 286 280 277 263 258 246 242 240 240 241
244 238 229 262 272 265 260 267 264 273 291 285 261 269 283 285 284 283 292 306 309 308 308 311 318 318 322 324 322 312 307 305 299 296 295 291 290 305 296 281 275 268 262 258
247 263 251 270 288 281 257 270 276 261 261 279 282 271 278 287 294 292 294 295 292 295 300 308 316 316 317 316 312 297 290 297 301 303 301 298 296 299 313 325 316 297 284 276
249 252 264 267 273 286 280 278 278 281 280 276 284 295 291 294 299 293 287 285 289 296 298 303 309 309 311 311 306 302 299 299 303 297 295 290 284 285 289 300 315 320 315 295
250 238 244 267 283 295 306 323 321 308 308 309 305 299 293 288 288 287 292 298 304 305 304 310 311 309 315 313 309 306 305 297 294 294 294 292 290 291 294 297 302 312 325 326
254 252 248 255 267 284 300 289 281 287 291 291 293 288 282 280 287 296 305 311 302 300 302 304 302 306 313 315 315 311 302 308 310 306 308 310 310 305 301 303 306 307 308 311
225 247 247 258 264 272 269 263 259 267 274 276 278 285 291 297 305 308 309 305 290 286 291 293 298 308 314 313 306 304 310 319 329 330 323 310 305 303 302 300 300 304 305 309
222 231 234 237 244 257 268 270 265 267 268 271 279 288 286 282 284 292 302 315 320 314 308 302 304 310 314 313 309 309 313 316 321 323 323 323 324 323 324 319 316 315 323 333
233 234 239 239 241 244 256 265 269 270 275 271 262 268 274 278 283 293 305 320 321 315 316 312 319 328 318 314 323 313 317 325 330 328 332 339 352 349 336 327 325 327 333 343
242 242 241 250 253 246 258 267 272 279 282 267 259 278 294 295 296 302 302 294 287 286 300 313 311 313 313 314 328 318 307 314 319 327 336 341 338 339 341 342 341 339 341 346
245 245 246 253 273 279 266 261 258 272 285 270 244 256 275 295 300 293 298 301 303 302 305 318 330 319 310 309 313 331 332 325 320 313 315 313 316 323 330 333 336 333 329 331
244 239 245 251 266 291 295 279 253 257 273 283 282 284 295 306 309 302 278 272 296 315 326 317 317 315 321 326 14 24 336 314 305 302 299 295 295 303 312 318 319 319 321 323
244 236 241 246 248 269 303 298 264 246 252 260 264 269 270 272 271 279 296 297 300 313 324 313 317 322 331 9 34 356 321 306 294 288 285 284 282 282 290 300 300 304 306 306
239 235 237 242 214 234 292 297 295 282 271 276 272 263 261 281 292 274 271 297 313 319 321 317 328 331 342 20 359 327 307 293 286 281 280 281 282 283 283 286 291 295 296 297
236 232 214 197 215 245 257 282 327 328 319 316 310 303 287 261 265 289 296 294 304 321 321 318 326 335 349 337 319 301 293 283 276 276 272 275 275 277 280 281 281 284 288 289
228 228 235 234 232 239 235 219 248 279 291 306 314 314 312 308 296 298 306 312 311 321 327 319 319 321 317 305 297 292 290 298 305 298 280 274 273 273 275 277 279 278 278 279
244 236 243 279 277 243 225 214 227 254 256 258 287 296 300 308 313 316 317 319 321 320 314 309 309 307 302 298 295 292 291 289 283 279 277 273 270 269 271 272 273 275 274 274
Height
1507 1503 1503 1502 1500 1500 1500 1498 1497 1487 1486 1477 1475 1474 1472 1471 1469 1468 1466 1464 1463 1462 1461 1460 1459 1457 1456 1456 1456 1456 1455 1456 1456 1457 1457 1457 1458 1459 1460 1461 1463 1464 1466 1468
1506 1500 1499 1497 1493 1493 1493 1492 1490 1486 1482 1474 1473 1472 1470 1468 1467 1465 1463 1462 1460 1459 1457 1456 1454 1453 1452 1452 1452 1452 1451 1451 1452 1452 1452 1453 1453 1454 1455 1456 1457 1459 1460 1461
1505 1502 1498 1494 1486 1486 1486 1484 1484 1480 1476 1472 1471 1469 1468 1466 1465 1463 1461 1459 1458 1456 1454 1452 1451 1450 1449 1448 1448 1447 1447 1447 1447 1447 1448 1448 1448 1449 1449 1450 1451 1452 1454 1455
1507 1505 1499 1482 1481 1480 1481 1480 1478 1475 1472 1470 1469 1467 1465 1464 1462 1460 1458 1456 1455 1453 1451 1449 1448 1446 1445 1444 1443 1443 1442 1442 1443 1443 1443 1443 1444 1444 1444 1445 1445 1446 1448 1449
1508 1506 1494 1481 1479 1480 1481 1477 1473 1473 1470 1468 1466 1464 1462 1461 1460 1458 1456 1454 1452 1450 1448 1446 1444 1442 1441 1439 1439 1438 1437 1438 1438 1438 1438 1438 1439 1439 1439 1440 1440 1441 1442 1443
1507 1503 1493 1478 1477 1475 1478 1476 1468 1468 1467 1466 1465 1466 1461 1458 1457 1455 1453 1451 1449 1446 1444 1442 1441 1439 1437 1435 1434 1433 1433 1434 1434 1434 1434 1434 1434 1434 1434 1435 1435 1436 1436 1437
1504 1501 1488 1477 1475 1476 1479 1471 1466 1464 1464 1464 1463 1462 1459 1456 1454 1452 1450 1448 1446 1444 1441 1440 1438 1435 1433 1431 1429 1429 1429 1430 1429 1429 1429 1429 1429 1429 1430 1430 1430 1431 1432 1432
1500 1498 1485 1473 1474 1474 1469 1465 1463 1462 1462 1461 1459 1457 1455 1453 1451 1449 1447 1445 1443 1441 1438 1437 1435 1432 1430 1427 1426 1425 1425 1425 1425 1425 1425 1425 1425 1425 1425 1426 1426 1426 1427 1427
1485 1478 1470 1468 1466 1465 1464 1463 1461 1461 1460 1458 1456 1454 1452 1450 1449 1446 1444 1442 1440 1438 1435 1434 1432 1429 1427 1425 1424 1422 1422 1422 1422 1422 1422 1422 1421 1421 1421 1422 1422 1422 1422 1422
1479 1470 1467 1465 1464 1463 1462 1460 1459 1458 1457 1455 1453 1451 1449 1448 1446 1443 1441 1439 1437 1435 1432 1430 1429 1427 1425 1423 1422 1420 1419 1419 1419 1418 1418 1418 1418 1418 1418 1418 1418 1418 1418 1418
1472 1466 1464 1461 1460 1459 1458 1457 1456 1455 1454 1452 1450 1448 1447 1445 1443 1441 1439 1437 1435 1432 1430 1428 1426 1425 1423 1422 1420 1418 1417 1417 1416 1416 1415 1414 1414 1414 1414 1414 1414 1414 1415 1415
1465 1462 1462 1458 1456 1456 1454 1453 1452 1451 1449 1448 1447 1445 1443 1442 1440 1438 1436 1434 1432 1430 1428 1426 1424 1422 1421 1420 1418 1417 1415 1414 1414 1413 1412 1412 1411 1411 1411 1411 1411 1411 1411 1412
1459 1458 1457 1455 1454 1453 1451 1450 1448 1447 1446 1444 1443 1442 1440 1438 1437 1435 1433 1431 1429 1427 1425 1423 1422 1420 1419 1418 1416 1415 1413 1412 1411 1411 1410 1409 1408 1407 1407 1407 1407 1407 1407 1408
1455 1455 1453 1451 1450 1449 1448 1446 1445 1443 1442 1441 1439 1438 1437 1435 1433 1432 1430 1428 1426 1425 1423 1421 1419 1418 1417 1415 1414 1413 1411 1410 1409 1408 1407 1407 1406 1405 1404 1404 1403 1403 1404 1404
1451 1450 1449 1448 1446 1445 1444 1443 1441 1439 1438 1437 1436 1435 1433 1432 1430 1429 1427 1425 1423 1422 1420 1418 1417 1415 1414 1413 1411 1410 1409 1408 1407 1406 1405 1404 1404 1403 1402 1402 1401 1401 1401 1401
1446 1445 1445 1444 1442 1441 1440 1439 1437 1436 1434 1433 1432 1431 1430 1429 1427 1426 1424 1423 1421 1419 1417 1416 1414 1413 1412 1411 1409 1408 1407 1406 1405 1404 1403 1402 1401 1401 1400 1400 1399 1399 1399 1399
1442 1440 1439 1439 1438 1437 1436 1435 1434 1433 1432 1430 1429 1428 1427 1426 1424 1423 1421 1420 1419 1417 1415 1414 1412 1411 1409 1408 1407 1406 1404 1403 1403 1402 1401 1400 1399 1399 1398 1398 1397 1397 1397 1397
1438 1437 1436 1436 1435 1434 1433 1432 1431 1430 1429 1428 1427 1425 1424 1422 1421 1420 1419 1417 1416 1415 1413 1412 1410 1408 1407 1406 1405 1404 1403 1402 1401 1400 1399 1398 1397 1397 1396 1396 1396 1395 1395 1395
1433 1433 1432 1432 1432 1431 1430 1429 1428 1427 1426 1425 1424 1422 1421 1420 1419 1418 1417 1415 1413 1412 1411 1410 1408 1406 1405 1404 1403 1402 1401 1400 1399 1398 1397 1396 1396 1395 1395 1394 1394 1393 1393 1392
1430 1429 1429 1429 1429 1428 1427 1426 1425 1424 1423 1422 1421 1420 1419 1418 1417 1416 1415 1413 1412 1411 1410 1408 1406 1405 1403 1402 1401 1400 1399 1398 1397 1396 1395 1395 1394 1393 1393 1392 1392 1391 1391 1390
1427 1427 1426 1426 1426 1425 1425 1424 1423 1422 1421 1420 1419 1418 1417 1416 1415 1414 1412 1411 1411 1409 1408 1406 1405 1403 1402 1401 1400 1399 1398 1397 1396 1395 1394 1393 1392 1392 1391 1391 1390 1390 1389 1389
1425 1425 1424 1424 1423 1423 1422 1421 1420 1419 1418 1418 1417 1416 1415 1414 1413 1412 1411 1410 1409 1407 1406 1404 1403 1402 1400 1399 1398 1397 1396 1395 1394 1393 1392 1391 1391 1390 1389 1389 1389 1388 1388 1387
1423 1423 1422 1422 1421 1420 1419 1419 1418 1417 1416 1415 1415 1414 1413 1412 1411 1410 1409 1408 1407 1405 1404 1403 1402 1401 1399 1398 1397 1396 1394 1393 1392 1391 1391 1390 1389 1389 1388 1388 1387 1387 1386 1386
1421 1421 1420 1419 1419 1418 1417 1416 1416 1415 1414 1414 1413 1412 1411 1410 1409 1409 1407 1406 1405 1404 1402 1401 1400 1399 1398 1396 1395 1394 1393 1392 1391 1390 1389 1389 1388 1388 1387 1386 1386 1385 1385 1384
1419 1419 1418 1417 1416 1415 1415 1414 1413 1413 1412 1412 1411 1410 1410 1409 1408 1407 1405 1404 1403 1402 1400 1399 1398 1397 1396 1394 1393 1392 1392 1391 1390 1389 1388 1387 1387 1386 1385 1385 1384 1384 1383 1382
1417 1417 1416 1415 1414 1414 1413 1412 1411 1410 1410 1409 1409 1408 1407 1407 1406 1404 1403 1402 1401 1399 1398 1397 1396 1395 1394 1393 1392 1391 1390 1389 1388 1387 1386 1385 1385 1384 1383 1383 1382 1382 1381 1380
1415 1414 1413 1413 1412 1412 1411 1410 1409 1409 1408 1407 1407 1406 1405 1405 1404 1402 1401 1400 1399 1398 1396 1395 1394 1393 1392 1391 1390 1389 1388 1387 1386 1385 1384 1383 1383 1382 1381 1380 1380 1379 1379 1378